Location: Caracas
(10.5033°N, 66.8422°W)
Time: 02:31:45
(UTC-04:00)

Hubble Space Telescope - Pass Details

Date: 15 November 2017
Orbit: 537 x 541 km, 28.5° (Epoch: 18 November)

Event Time Altitude Azimuth Distance (km) Brightness Sun altitude
Exits shadow 05:56:21 - 295° (WNW) 1,906 2.9 -7.0°
Reaches altitude 10° 05:56:52 10° 301° (WNW) 1,775 2.8 -6.9°
Maximum altitude 05:59:29 16° 340° (NNW) 1,422 2.6 -6.3°
Drops below altitude 10° 06:02:06 10° 20° (NNE) 1,776 3.5 -5.6°
Sets 06:05:03 0° 42° (NE) 2,667 4.7 -5.0°
